Weather History for KCBK - January, 2014

Change the Weather History Date:

Monday, January 20, 2014

  Actual Average (KGLD) Record (KGLD)
Temperature  
Mean Temperature 36 °F 30 °F  
Max Temperature 50 °F 42 °F 77 °F (1896)
Min Temperature 21 °F 17 °F -13 °F (1935)
Degree Days  
Heating Degree Days 30 35  
Month to date heating degree days 702  
Since 1 July heating degree days 3109  
Cooling Degree Days 0 0  
Month to date cooling degree days 0  
Year to date cooling degree days 0  
Moisture  
Dew Point 19 °F    
Average Humidity 51    
Maximum Humidity 86    
Minimum Humidity 30    
Precipitation  
Precipitation 0.00 in 0.01 in 0.39 in (1945)
Month to date precipitation 0.23  
Year to date precipitation 0.23  
Snow  
Snow 0.00 in 0.20 in - ()
Month to date snowfall 3.6  
Since 1 July snowfall 16.3  
Snow Depth -    
Sea Level Pressure  
Sea Level Pressure 30.16 in    
Wind  
Wind Speed 16 mph (NW)    
Max Wind Speed 33 mph    
Max Gust Speed 45 mph    
Visibility 9 miles    
Events      
T = Trace of Precipitation, MM = Missing Value Source: NWS Daily Summary

Daily Weather History Graph

Daily Weather History Graph

Search for Another Location

Airport or City:

Trip Planner

Search our weather history database for the weather conditions in past years. The results will help you decide how hot, cold, wet, or windy it might be!

Date:

Astronomy

Jan. 20, 2014 Rise Set
Actual Time 8:00 AM CST 5:50 PM CST
Civil Twilight 7:31 AM CST 6:19 PM CST
Nautical Twilight 6:58 AM CST 6:52 PM CST
Astronomical Twilight 6:26 AM CST 7:24 PM CST
Moon 10:25 PM CST (1/20) 10:02 AM CST (1/20)
Length of Visible Light 10h 48m
Length of Day
9h 50m
Waning Gibbous, 82% of the Moon is Illuminated
Jan 20
Waning Gibbous
Jan 23
Last Quarter
Jan 30
New
Feb 6
First Quarter
Feb 14
Full

Hourly Weather History & Observations

Time (CST) Temp. Windchill Dew Point Humidity Pressure Visibility Wind Dir Wind Speed Gust Speed Precip Events Conditions
12:15 AM 32.0 °F 23.0 °F 15.8 °F 51% 29.92 in 10.0 mi WNW 11.5 mph - N/A   Clear
12:35 AM 33.8 °F 24.8 °F 17.6 °F 52% 29.92 in 10.0 mi WNW 12.7 mph - N/A   Clear
12:55 AM 33.8 °F 24.8 °F 17.6 °F 52% 29.92 in 10.0 mi WNW 12.7 mph - N/A   Clear
1:15 AM 33.8 °F 25.3 °F 17.6 °F 52% 29.92 in 10.0 mi WNW 11.5 mph - N/A   Clear
1:35 AM 33.8 °F 25.3 °F 17.6 °F 52% 29.92 in 10.0 mi WNW 11.5 mph - N/A   Clear
1:55 AM 32.0 °F 23.6 °F 17.6 °F 55% 29.91 in 10.0 mi NW 10.4 mph - N/A   Clear
2:15 AM 32.0 °F 23.0 °F 17.6 °F 55% 29.92 in 10.0 mi WNW 11.5 mph - N/A   Clear
2:35 AM 32.0 °F 23.6 °F 17.6 °F 55% 29.93 in 10.0 mi West 10.4 mph - N/A   Clear
2:55 AM 32.0 °F 22.1 °F 17.6 °F 55% 29.93 in 10.0 mi WNW 13.8 mph - N/A   Clear
3:15 AM 33.8 °F 24.8 °F 17.6 °F 52% 29.93 in 10.0 mi WNW 12.7 mph - N/A   Clear
3:35 AM 37.4 °F 28.9 °F 17.6 °F 45% 29.94 in 10.0 mi WNW 13.8 mph - N/A   Clear
3:55 AM 33.8 °F 26.4 °F 17.6 °F 52% 29.95 in 10.0 mi West 9.2 mph - N/A   Clear
4:15 AM 32.0 °F 22.1 °F 17.6 °F 55% 29.95 in 10.0 mi West 13.8 mph - N/A   Clear
4:35 AM 32.0 °F 21.6 °F 17.6 °F 55% 29.95 in 10.0 mi WNW 15.0 mph - N/A   Clear
4:55 AM 33.8 °F 24.3 °F 17.6 °F 52% 29.95 in 10.0 mi WNW 13.8 mph - N/A   Clear
5:15 AM 33.8 °F 23.2 °F 17.6 °F 52% 29.96 in 10.0 mi WNW 17.3 mph - N/A   Clear
5:35 AM 32.0 °F 22.1 °F 17.6 °F 55% 29.97 in 10.0 mi NW 13.8 mph - N/A   Clear
5:55 AM 32.0 °F 21.6 °F 17.6 °F 55% 29.98 in 10.0 mi NW 15.0 mph - N/A   Clear
6:15 AM 33.8 °F 23.9 °F 17.6 °F 52% 29.99 in 10.0 mi NW 15.0 mph - N/A   Clear
6:35 AM 33.8 °F 23.2 °F 19.4 °F 56% 30.01 in 10.0 mi NW 17.3 mph 21.9 mph N/A   Clear
6:55 AM 33.8 °F 24.3 °F 19.4 °F 56% 30.03 in 10.0 mi NNW 13.8 mph - N/A   Clear
7:15 AM 33.8 °F 23.9 °F 19.4 °F 56% 30.05 in 10.0 mi NNW 15.0 mph - N/A   Clear
7:35 AM 33.8 °F 23.2 °F 21.2 °F 60% 30.08 in 10.0 mi NNW 17.3 mph 21.9 mph N/A   Clear
7:55 AM 33.8 °F 23.2 °F 21.2 °F 60% 30.09 in 10.0 mi NNW 17.3 mph 23.0 mph N/A   Clear
8:15 AM 33.8 °F 22.8 °F 21.2 °F 60% 30.10 in 10.0 mi NNW 18.4 mph - N/A   Clear
8:35 AM 33.8 °F 23.9 °F 21.2 °F 60% 30.12 in 10.0 mi NNW 15.0 mph 23.0 mph N/A   Clear
8:55 AM 35.6 °F 26.2 °F 23.0 °F 60% 30.14 in 10.0 mi NNW 15.0 mph - N/A   Clear
9:15 AM 35.6 °F 26.6 °F 23.0 °F 60% 30.15 in 10.0 mi NNW 13.8 mph - N/A   Clear
9:35 AM 35.6 °F 26.6 °F 23.0 °F 60% 30.16 in 10.0 mi NNW 13.8 mph - N/A   Clear
9:50 AM 35.6 °F 25.9 °F 23.0 °F 60% 30.18 in 10.0 mi NNW 16.1 mph - N/A   Clear
10:15 AM 37.4 °F 28.2 °F 23.0 °F 56% 30.19 in 10.0 mi NNW 16.1 mph 19.6 mph N/A   Clear
10:35 AM 39.2 °F 29.0 °F 23.0 °F 52% 30.20 in 10.0 mi NNW 21.9 mph - N/A   Clear
10:55 AM 42.8 °F 34.8 °F 23.0 °F 46% 30.21 in 10.0 mi NW 17.3 mph 23.0 mph N/A   Clear
11:15 AM 44.6 °F 36.1 °F 23.0 °F 43% 30.21 in 10.0 mi NNW 21.9 mph 27.6 mph N/A   Clear
11:35 AM 46.4 °F 38.1 °F 23.0 °F 40% 30.21 in 10.0 mi NNW 24.2 mph 29.9 mph N/A   Clear
11:55 AM 50.0 °F - 24.8 °F 37% 30.21 in 10.0 mi NW 29.9 mph 36.8 mph N/A   Clear
12:15 PM 50.0 °F - 23.0 °F 35% 30.20 in 10.0 mi NNW 24.2 mph 34.5 mph N/A   Scattered Clouds
12:35 PM 50.0 °F - 21.2 °F 32% 30.20 in 10.0 mi NW 31.1 mph 39.1 mph N/A   Scattered Clouds
12:55 PM 46.4 °F 37.7 °F 19.4 °F 34% 30.20 in 10.0 mi NW 26.5 mph 34.5 mph N/A   Scattered Clouds
1:15 PM 50.0 °F - 21.2 °F 32% 30.20 in 10.0 mi NW 29.9 mph 39.1 mph N/A   Clear
1:35 PM 50.0 °F - 21.2 °F 32% 30.20 in 10.0 mi NW 28.8 mph 39.1 mph N/A   Clear
1:55 PM 50.0 °F - 19.4 °F 30% 30.20 in 7.0 mi NW 32.2 mph 44.9 mph N/A   Scattered Clouds
2:15 PM 50.0 °F - 19.4 °F 30% 30.20 in 10.0 mi NW 33.4 mph 44.9 mph N/A   Scattered Clouds
2:35 PM 50.0 °F - 21.2 °F 32% 30.20 in 10.0 mi NNW 28.8 mph 36.8 mph N/A   Clear
2:55 PM 50.0 °F - 19.4 °F 30% 30.20 in 10.0 mi NNW 31.1 mph 42.6 mph N/A   Clear
3:15 PM 50.0 °F - 19.4 °F 30% 30.21 in 7.0 mi NW 29.9 mph 36.8 mph N/A   Mostly Cloudy
3:35 PM 50.0 °F - 19.4 °F 30% 30.22 in 5.0 mi NW 32.2 mph 43.7 mph N/A   Haze
3:55 PM 46.4 °F 38.3 °F 19.4 °F 34% 30.23 in 3.0 mi NNW 23.0 mph 36.8 mph N/A   Haze
4:15 PM 46.4 °F 36.7 °F 19.4 °F 34% 30.24 in 3.0 mi NNW 33.4 mph 43.7 mph N/A   Haze
4:35 PM 46.4 °F 36.7 °F 17.6 °F 32% 30.25 in 3.0 mi NW 33.4 mph 42.6 mph N/A   Haze
4:55 PM 44.6 °F 34.9 °F 19.4 °F 37% 30.26 in 3.0 mi NNW 28.8 mph 41.4 mph N/A   Haze
5:15 PM 44.6 °F 34.9 °F 19.4 °F 37% 30.27 in 2.5 mi NNW 28.8 mph 33.4 mph N/A   Haze
5:35 PM 42.8 °F 33.3 °F 19.4 °F 39% 30.27 in 3.0 mi NNW 24.2 mph 31.1 mph N/A   Haze
5:55 PM 41.0 °F 31.4 °F 19.4 °F 42% 30.28 in 4.0 mi NNW 21.9 mph 27.6 mph N/A   Haze
6:15 PM 41.0 °F 32.8 °F 17.6 °F 39% 30.29 in 7.0 mi NNW 16.1 mph - N/A   Overcast
6:35 PM 39.2 °F 31.2 °F 17.6 °F 42% 30.30 in 7.0 mi NNW 13.8 mph - N/A   Overcast
6:55 PM 37.4 °F 28.9 °F 17.6 °F 45% 30.31 in 10.0 mi NW 13.8 mph - N/A   Overcast
7:15 PM 35.6 °F 26.6 °F 17.6 °F 48% 30.31 in 10.0 mi NNW 13.8 mph - N/A   Scattered Clouds
7:35 PM 33.8 °F 25.3 °F 17.6 °F 52% 30.32 in 10.0 mi NW 11.5 mph - N/A   Clear
7:55 PM 33.8 °F 24.8 °F 17.6 °F 52% 30.32 in 10.0 mi NNW 12.7 mph - N/A   Clear
8:15 PM 33.8 °F 26.4 °F 17.6 °F 52% 30.34 in 10.0 mi WNW 9.2 mph - N/A   Clear
8:35 PM 32.0 °F 24.2 °F 17.6 °F 55% 30.35 in 10.0 mi NW 9.2 mph - N/A   Clear
8:55 PM 32.0 °F 24.2 °F 17.6 °F 55% 30.36 in 10.0 mi NNW 9.2 mph - N/A   Clear
9:15 PM 30.2 °F 21.9 °F 17.6 °F 60% 30.36 in 10.0 mi North 9.2 mph - N/A   Clear
9:35 PM 28.4 °F 21.2 °F 17.6 °F 64% 30.37 in 10.0 mi North 6.9 mph - N/A   Clear
9:55 PM 26.6 °F 21.2 °F 17.6 °F 69% 30.37 in 10.0 mi NNW 4.6 mph - N/A   Clear
10:15 PM 23.0 °F 18.4 °F 17.6 °F 80% 30.38 in 10.0 mi NW 3.5 mph - N/A   Clear
10:35 PM 24.8 °F 17.9 °F 17.6 °F 74% 30.39 in 10.0 mi North 5.8 mph - N/A   Clear
10:55 PM 23.0 °F 12.4 °F 17.6 °F 80% 30.39 in 10.0 mi North 10.4 mph - N/A   Clear
11:15 PM 24.8 °F 14.6 °F 19.4 °F 80% 30.40 in 10.0 mi North 10.4 mph - N/A   Clear
11:35 PM 21.2 °F 11.7 °F 17.6 °F 86% 30.41 in - North 8.1 mph - N/A   Unknown
11:55 PM 21.2 °F 13.6 °F 17.6 °F 86% 30.41 in 10.0 mi North 5.8 mph - N/A   Clear